Weather Service Report


701 
ASUS44 KMEG 020410
RWRMEG
MEMPHIS CWA HOURLY WEATHER ROUNDUP
NATIONAL WEATHER SERVICE MEMPHIS TN
1000 PM CST SUN MAR 01 2015

...WEST TENNESSEE...
  
CITY           SKY/WX    TMP DP  RH WIND       PRES   REMARKS
MEMPHIS INTL   LGT RAIN  38  36  92 N6        30.39R FOG     WCI  33  
NWS MEMPHIS      N/A     38 N/A N/A MISG        N/A                   
JACKSON        CLOUDY    38  36  92 N8        30.39R FOG     WCI  32  
LEXINGTON      CLOUDY    39  39 100 N3        30.35R                  
SAVANNAH       CLOUDY    48  48 100 CALM      30.34S VSB 3/4          
DYERSBURG      CLOUDY    34  21  60 N3        30.44R                  
UNION CITY     CLOUDY    32  32 100 N6        30.40R WCI  26          
PARIS          CLOUDY    32  32 100 N6        30.39R WCI  26          


...EASTERN ARKANSAS...
  
CITY           SKY/WX    TMP DP  RH WIND       PRES   REMARKS
JONESBORO      CLOUDY    36  35  96 N7        30.41S WCI  30          
WEST MEMPHIS   LGT RAIN  36  36 100 N10       30.39S FOG     WCI  28  
BATESVILLE     CLOUDY    37  34  87 NW6       30.42R WCI  33          
NEWPORT        CLOUDY    36  36 100 N5        30.43R FOG     WCI  32  
WALNUT RIDGE   CLOUDY    36  32  87 N8        30.42R WCI  29          
BLYTHEVILLE    LGT RAIN  34  33  96 N6        30.42R FOG     WCI  29  
SEARCY         CLOUDY    38  37  97 N8        30.42R WCI  32          
STUTTGART      CLOUDY    39  36  87 N10       30.40R WCI  32          
PINE BLUFF     CLOUDY    39  37  92 N12       30.39R FOG     WCI  32  
MONTICELLO     LGT RAIN  41  39  93 NE5       30.35S FOG              


...NORTH MISSISSIPPI...
  
CITY           SKY/WX    TMP DP  RH WIND       PRES   REMARKS
TUPELO         CLOUDY    52  50  93 CALM      30.33F                  
OXFORD         CLOUDY    46  46 100 N7        30.35S FOG              
OLIVE BRANCH   CLOUDY    36 N/A N/A N10       30.39R WCI  28          
TUNICA         RAIN      37  36  93 N10       30.40R WCI  30          
CLARKSDALE     CLOUDY    39  39 100 N17       30.39R WCI  30          
CORINTH        DRIZZLE   50  48  93 NW7       30.33S                  
GREENWOOD        N/A    N/A N/A N/A MISG      30.31S                  
COLUMBUS       CLOUDY    54  54 100 N3        30.31S FOG              
STARKVILLE     CLOUDY    52  52 100 E3        30.31S FOG              
GOLDEN TRIANGL CLOUDY    54  52  94 S7        30.30F                  


...SOUTHEAST MISSOURI...
  
CITY           SKY/WX    TMP DP  RH WIND       PRES   REMARKS
WEST PLAINS    CLOUDY    31  24  75 N10       30.42R WCI  22          
POPLAR BLUFF   CLOUDY    35  29  78 N10       30.43R WCI  27          
CAPE GIRARDEAU PTCLDY    33  27  78 N15       30.44R WCI  23          


...NORTHWEST ALABAMA...
  
CITY           SKY/WX    TMP DP  RH WIND       PRES   REMARKS
MUSCLE SHOALS  LGT RAIN  52  48  87 CALM      30.35R VSB 3/4          


...MIDDLE TENNESSEE...
  
CITY           SKY/WX    TMP DP  RH WIND       PRES   REMARKS
NASHVILLE      LGT RAIN  46  46 100 NW12G20   30.34R VSB 1/2          
CLARKSVILLE    LGT RAIN  35  34  96 N8        30.38S FOG     WCI  29  
COLUMBIA       CLOUDY   N/A N/A N/A CALM      30.32R                  


...WESTERN KENTUCKY...
  
CITY           SKY/WX    TMP DP  RH WIND       PRES   REMARKS
PADUCAH        CLOUDY    33  28  81 N12       30.42R WCI  24          
FORT CAMPBELL  CLOUDY    34  32  93 NW5       30.38S FOG     WCI  30  


...CENTRAL ARKANSAS...
  
CITY           SKY/WX    TMP DP  RH WIND       PRES   REMARKS
LITTLE ROCK    CLOUDY    40  37  89 N7        30.41R                  


SKY/WX REPORTED AS FAIR MEANS FEW OR NO CLOUDS BELOW
12 THOUSAND FEET.



702 
ASUS44 KMEG 020410
RWRTN 
TENNESSEE HOURLY STATE WEATHER ROUNDUP
NATIONAL WEATHER SERVICE MEMPHIS TN
1000 PM CST SUN MAR 01 2015

TNZ002-004-019-021-049-052-054-088>092-020500-
WEST TENNESSEE
  
CITY           SKY/WX    TMP DP  RH WIND       PRES   REMARKS
MEMPHIS INTL   LGT RAIN  38  36  92 N6        30.39R FOG     WCI  33  
NWS MEMPHIS      N/A     38 N/A N/A MISG        N/A                   
JACKSON        CLOUDY    38  36  92 N8        30.39R FOG     WCI  32  
DYERSBURG      CLOUDY    34  21  60 N3        30.44R                  
UNION CITY     CLOUDY    32  32 100 N6        30.40R WCI  26          
PARIS          CLOUDY    32  32 100 N6        30.39R WCI  26          
LEXINGTON      CLOUDY    39  39 100 N3        30.35R                  
SAVANNAH       CLOUDY    48  48 100 CALM      30.34S VSB 3/4          
$$

TNZ008-025-027-028-033-062-065-066-020500-
NORTH MIDDLE TENNESSEE
  
CITY           SKY/WX    TMP DP  RH WIND       PRES   REMARKS
NASHVILLE      LGT RAIN  46  46 100 NW12G20   30.34R VSB 1/2          
CLARKSVILLE    LGT RAIN  35  34  96 N8        30.38S FOG     WCI  29  
SMYRNA         MOCLDY    48  48 100 CALM      30.33R FOG              
COOKEVILLE     CLOUDY    48  46  93 S3        30.30S                  
CROSSVILLE     CLOUDY    45  44  97 SW3       30.31R FOG              
$$

TNZ061-075-076-078-094-096-097-020500-
SOUTH MIDDLE TENNESSEE
  
CITY           SKY/WX    TMP DP  RH WIND       PRES   REMARKS
FAYETTEVILLE   CLOUDY    46  45  93 CALM        N/A                   
TULLAHOMA      CLOUDY    46  46 100 S5        30.33S                  
WINCHESTER     CLOUDY    46  46 100 SE5       30.33S                  
MCMINNVILLE    CLOUDY    48  48 100 SW3       30.31F                  
COLUMBIA       CLOUDY   N/A N/A N/A CALM      30.32R                  
SHELBYVILLE    CLOUDY    50  48  93 SW3       30.33R VSB 1            
$$

TNZ017-018-042-046-047-020500-
NORTHEAST TENNESSEE
  
CITY           SKY/WX    TMP DP  RH WIND       PRES   REMARKS
TRI CITIES     CLOUDY    43  42  97 CALM      30.31F                  
ELIZABETHTON   CLOUDY    43  43 100 CALM      30.30F FOG              
$$

TNZ012-013-036-069-073-074-020500-
CENTRAL EAST TENNESSEE
  
CITY           SKY/WX    TMP DP  RH WIND       PRES   REMARKS
KNOXVILLE      CLOUDY    44  43  96 S3        30.32F FOG              
OAK RIDGE      CLOUDY    45  43  93 VRB3      30.34S FOG              
GATLINBURG     CLOUDY    43  41  93 CALM      30.32S                  
MORRISTOWN     CLOUDY    43  41  93 SW3       30.31F                  
$$

TNZ083-085-099-020500-
SOUTHEAST TENNESSEE
  
CITY           SKY/WX    TMP DP  RH WIND       PRES   REMARKS
CHATTANOOGA    LGT RAIN  47  44  90 SW3       30.36R FOG              
$$

SKY/WX REPORTED AS FAIR MEANS FEW OR NO CLOUDS BELOW
12 THOUSAND FEET.


Return to Home page


Western Regional Climate Center, wrcc@dri.edu